Location: Cazarilh
(42.9578°N, 0.5819°E)
Time: 00:39:41
(UTC+00:00)

Cosmos 1536 - Pass Details

Date: 11 December 2019
Orbit: 540 x 559 km, 82.5° (Epoch: 18 January)

Event Time Altitude Azimuth Distance (km) Brightness Sun altitude
Rises 06:44:01 0° 198° (SSW) 2,732 6.5 -6.4°
Reaches altitude 10° 06:46:14 10° 203° (SSW) 1,842 5.5 -6.0°
Maximum altitude 06:50:12 53° 281° (W) 696 3.0 -5.3°
Drops below altitude 10° 06:54:12 10° 359° (N) 1,853 5.2 -4.7°
Sets 06:56:25 0° 4° (N) 2,751 6.1 -4.3°
